01-06-2022, 00:00:05,    260,    0.0,    6.6,   0.00,   0.00, 1011.9,   79.6, -999.0
01-06-2022, 00:00:16,    260,    0.0,    6.6,   0.00,   0.00, 1012.0,   79.6, -999.0
01-06-2022, 00:00:25,    260,    0.0,    6.6,   0.00,   0.00, 1012.0,   79.7, -999.0
01-06-2022, 00:00:35,    260,    0.2,    6.6,   0.00,   0.00, 1012.0,   79.8, -999.0
01-06-2022, 00:00:45,    260,    0.2,    6.7,   0.00,   0.00, 1012.1,   80.1, -999.0
01-06-2022, 00:00:55,    260,    0.0,    6.6,   0.00,   0.00, 1012.0,   79.8, -999.0
01-06-2022, 00:01:05,    261,    0.0,    6.6,   0.00,   0.00, 1012.0,   79.9, -999.0
01-06-2022, 00:01:15,    262,    0.0,    6.7,   0.00,   0.00, 1011.9,   80.1, -999.0
01-06-2022, 00:01:25,    260,    0.0,    6.6,   0.00,   0.00, 1012.0,   80.1, -999.0
01-06-2022, 00:01:35,    260,    0.0,    6.7,   0.00,   0.00, 1012.0,   80.1, -999.0
01-06-2022, 00:01:45,    260,    0.0,    6.6,   0.00,   0.00, 1012.0,   80.0, -999.0
01-06-2022, 00:01:55,    260,    0.0,    6.6,   0.00,   0.00, 1012.0,   80.0, -999.0
01-06-2022, 00:02:05,    261,    0.0,    6.6,   0.00,   0.00, 1012.0,   79.9, -999.0
01-06-2022, 00:02:15,    271,    0.0,    6.6,   0.00,   0.00, 1012.0,   80.1, -999.0
01-06-2022, 00:02:25,    270,    0.0,    6.6,   0.00,   0.00, 1012.0,   80.0, -999.0
01-06-2022, 00:02:34,    272,    0.0,    6.5,   0.00,   0.00, 1011.9,   79.9, -999.0
01-06-2022, 00:02:45,    271,    0.0,    6.6,   0.00,   0.00, 1012.0,   79.9, -999.0
01-06-2022, 00:02:55,    270,    0.0,    6.5,   0.00,   0.00, 1011.9,   80.0, -999.0
01-06-2022, 00:03:04,    271,    0.0,    6.6,   0.00,   0.00, 1011.9,   80.1, -999.0
01-06-2022, 00:03:14,    270,    0.0,    6.5,   0.00,   0.00, 1011.9,   80.1, -999.0
01-06-2022, 00:03:25,    271,    0.0,    6.6,   0.00,   0.00, 1011.9,   80.1, -999.0
01-06-2022, 00:03:34,    271,    0.0,    6.7,   0.00,   0.00, 1011.9,   80.2, -999.0
01-06-2022, 00:03:44,    270,    0.0,    6.6,   0.00,   0.00, 1011.9,   80.2, -999.0
01-06-2022, 00:03:54,    270,    0.0,    6.6,   0.00,   0.00, 1011.9,   80.2, -999.0
01-06-2022, 00:04:04,    270,    0.0,    6.6,   0.00,   0.00, 1011.9,   80.2, -999.0
01-06-2022, 00:04:14,    270,    0.1,    6.6,   0.00,   0.00, 1012.0,   80.4, -999.0
01-06-2022, 00:04:24,    271,    0.0,    6.6,   0.00,   0.00, 1011.9,   80.2, -999.0
01-06-2022, 00:04:34,    271,    0.0,    6.6,   0.00,   0.00, 1012.0,   80.3, -999.0
01-06-2022, 00:04:44,    272,    0.1,    6.6,   0.00,   0.00, 1012.0,   80.5, -999.0
01-06-2022, 00:04:54,    270,    0.0,    6.6,   0.00,   0.00, 1011.9,   80.4, -999.0
01-06-2022, 00:05:04,    271,    0.0,    6.6,   0.00,   0.00, 1011.9,   80.3, -999.0
01-06-2022, 00:05:14,    271,    0.0,    6.6,   0.00,   0.00, 1011.9,   80.3, -999.0
01-06-2022, 00:05:24,    271,    0.0,    6.5,   0.00,   0.00, 1011.9,   80.3, -999.0
01-06-2022, 00:05:34,    271,    0.0,    6.5,   0.00,   0.00, 1011.9,   80.3, -999.0
01-06-2022, 00:05:43,    271,    0.0,    6.5,   0.00,   0.00, 1011.9,   80.3, -999.0
01-06-2022, 00:05:54,    270,    0.0,    6.6,   0.00,   0.00, 1012.0,   80.4, -999.0
01-06-2022, 00:06:04,    270,    0.4,    6.6,   0.00,   0.00, 1012.1,   80.7, -999.0
01-06-2022, 00:06:13,    270,    0.1,    6.7,   0.00,   0.00, 1012.0,   80.5, -999.0
01-06-2022, 00:06:23,    269,    0.1,    6.7,   0.00,   0.00, 1012.1,   80.6, -999.0
01-06-2022, 00:06:34,    269,    0.1,    6.6,   0.00,   0.00, 1012.1,   80.6, -999.0
01-06-2022, 00:06:43,    270,    0.0,    6.6,   0.00,   0.00, 1011.9,   80.4, -999.0
01-06-2022, 00:06:53,    269,    0.0,    6.6,   0.00,   0.00, 1012.0,   80.4, -999.0
01-06-2022, 00:07:04,    270,    0.0,    6.6,   0.00,   0.00, 1011.9,   80.4, -999.0
01-06-2022, 00:07:13,    270,    0.0,    6.6,   0.00,   0.00, 1012.0,   80.4, -999.0
01-06-2022, 00:07:23,    269,    0.0,    6.6,   0.00,   0.00, 1011.9,   80.4, -999.0
01-06-2022, 00:07:33,    269,    0.0,    6.6,   0.00,   0.00, 1011.9,   80.5, -999.0
01-06-2022, 00:07:43,    270,    0.0,    6.6,   0.00,   0.00, 1011.9,   80.5, -999.0
01-06-2022, 00:07:53,    265,    0.3,    6.6,   0.00,   0.00, 1012.0,   80.7, -999.0
01-06-2022, 00:08:03,    265,    0.1,    6.6,   0.00,   0.00, 1012.1,   80.6, -999.0
01-06-2022, 00:08:13,    265,    0.0,    6.5,   0.00,   0.00, 1012.0,   80.5, -999.0
01-06-2022, 00:08:23,    264,    0.0,    6.5,   0.00,   0.00, 1012.0,   80.5, -999.0
01-06-2022, 00:08:33,    264,    0.0,    6.5,   0.00,   0.00, 1012.0,   80.5, -999.0
01-06-2022, 00:08:43,    265,    0.0,    6.5,   0.00,   0.00, 1011.9,   80.5, -999.0
01-06-2022, 00:08:53,    265,    0.0,    6.6,   0.00,   0.00, 1011.9,   80.5, -999.0
01-06-2022, 00:09:03,    265,    0.0,    6.5,   0.00,   0.00, 1011.9,   80.6, -999.0
01-06-2022, 00:09:13,    265,    0.0,    6.6,   0.00,   0.00, 1011.9,   80.6, -999.0
01-06-2022, 00:09:22,    265,    0.0,    6.6,   0.00,   0.00, 1011.9,   80.6, -999.0
01-06-2022, 00:09:33,    265,    0.0,    6.6,   0.00,   0.00, 1011.9,   80.7, -999.0
01-06-2022, 00:09:43,    265,    0.0,    6.6,   0.00,   0.00, 1011.9,   80.7, -999.0
01-06-2022, 00:09:52,    265,    0.0,    6.6,   0.00,   0.00, 1012.0,   80.6, -999.0
01-06-2022, 00:10:02,    265,    0.0,    6.5,   0.00,   0.00, 1012.0,   80.7, -999.0
01-06-2022, 00:10:13,    265,    0.0,    6.6,   0.00,   0.00, 1011.9,   80.7, -999.0
01-06-2022, 00:10:22,    265,    0.0,    6.6,   0.00,   0.00, 1011.9,   80.8, -999.0
01-06-2022, 00:10:32,    265,    0.0,    6.6,   0.00,   0.00, 1012.0,   80.7, -999.0
01-06-2022, 00:10:42,    265,    0.0,    6.6,   0.00,   0.00, 1011.9,   80.6, -999.0
01-06-2022, 00:10:52,    265,    0.0,    6.6,   0.00,   0.00, 1011.9,   80.7, -999.0
01-06-2022, 00:11:02,    264,    0.0,    6.6,   0.00,   0.00, 1011.9,   80.6, -999.0
01-06-2022, 00:11:12,    265,    0.0,    6.5,   0.00,   0.00, 1011.9,   80.6, -999.0
01-06-2022, 00:11:22,    265,    0.0,    6.5,   0.00,   0.00, 1011.9,   80.6, -999.0
01-06-2022, 00:11:32,    266,    0.0,    6.5,   0.00,   0.00, 1012.0,   80.7, -999.0
01-06-2022, 00:11:42,    266,    0.0,    6.5,   0.00,   0.00, 1012.0,   80.7, -999.0
01-06-2022, 00:11:52,    266,    0.0,    6.6,   0.00,   0.00, 1012.0,   80.6, -999.0
01-06-2022, 00:12:02,    264,    0.0,    6.5,   0.00,   0.00, 1012.0,   80.7, -999.0
01-06-2022, 00:12:12,    264,    0.0,    6.5,   0.00,   0.00, 1012.0,   80.7, -999.0
01-06-2022, 00:12:22,    265,    0.0,    6.4,   0.00,   0.00, 1012.0,   80.7, -999.0
01-06-2022, 00:12:31,    265,    0.0,    6.5,   0.00,   0.00, 1012.0,   80.7, -999.0
01-06-2022, 00:12:42,    265,    0.0,    6.5,   0.00,   0.00, 1011.9,   80.8, -999.0
01-06-2022, 00:12:52,    265,    0.0,    6.5,   0.00,   0.00, 1011.9,   80.8, -999.0
01-06-2022, 00:13:01,    265,    0.0,    6.5,   0.00,   0.00, 1012.0,   80.8, -999.0
01-06-2022, 00:13:11,    264,    0.0,    6.6,   0.00,   0.00, 1012.0,   80.8, -999.0
01-06-2022, 00:13:22,    265,    0.0,    6.6,   0.00,   0.00, 1012.0,   80.8, -999.0
01-06-2022, 00:13:31,    265,    0.0,    6.6,   0.00,   0.00, 1012.0,   80.9, -999.0
01-06-2022, 00:13:41,    265,    0.0,    6.5,   0.00,   0.00, 1012.0,   80.9, -999.0
01-06-2022, 00:13:52,    264,    0.0,    6.5,   0.00,   0.00, 1011.9,   80.8, -999.0
01-06-2022, 00:14:01,    265,    0.0,    6.6,   0.00,   0.00, 1012.0,   80.8, -999.0
01-06-2022, 00:14:11,    265,    0.0,    6.6,   0.00,   0.00, 1012.0,   80.9, -999.0
01-06-2022, 00:14:21,    267,    0.0,    6.5,   0.00,   0.00, 1012.0,   80.8, -999.0
01-06-2022, 00:14:31,    267,    0.0,    6.5,   0.00,   0.00, 1012.0,   80.9, -999.0
01-06-2022, 00:14:41,    267,    0.0,    6.5,   0.00,   0.00, 1012.0,   80.9, -999.0
01-06-2022, 00:14:51,    267,    0.0,    6.4,   0.00,   0.00, 1012.0,   80.9, -999.0
01-06-2022, 00:15:01,    268,    0.0,    6.5,   0.00,   0.00, 1012.0,   80.9, -999.0
01-06-2022, 00:15:11,    267,    0.0,    6.6,   0.00,   0.00, 1012.0,   80.9, -999.0
01-06-2022, 00:15:21,    267,    0.0,    6.6,   0.00,   0.00, 1012.0,   80.9, -999.0
01-06-2022, 00:15:31,    267,    0.0,    6.6,   0.00,   0.00, 1012.0,   80.9, -999.0
01-06-2022, 00:15:40,    268,    0.0,    6.6,   0.00,   0.00, 1012.0,   81.0, -999.0
01-06-2022, 00:15:51,    267,    0.0,    6.5,   0.00,   0.00, 1012.0,   81.0, -999.0
01-06-2022, 00:16:01,    267,    0.0,    6.5,   0.00,   0.00, 1012.0,   81.0, -999.0
01-06-2022, 00:16:10,    267,    0.0,    6.5,   0.00,   0.00, 1012.0,   81.0, -999.0
01-06-2022, 00:16:21,    267,    0.0,    6.5,   0.00,   0.00, 1012.0,   80.9, -999.0
01-06-2022, 00:16:31,    267,    0.0,    6.5,   0.00,   0.00, 1012.0,   81.0, -999.0
01-06-2022, 00:16:40,    267,    0.0,    6.5,   0.00,   0.00, 1012.0,   80.9, -999.0
01-06-2022, 00:16:50,    267,    0.0,    6.5,   0.00,   0.00, 1012.0,   81.0, -999.0
01-06-2022, 00:17:01,    267,    0.0,    6.5,   0.00,   0.00, 1012.0,   81.0, -999.0
01-06-2022, 00:17:10,    266,    0.0,    6.6,   0.00,   0.00, 1012.0,   81.2, -999.0
01-06-2022, 00:17:20,    266,    0.0,    6.6,   0.00,   0.00, 1012.0,   81.2, -999.0
01-06-2022, 00:17:30,    267,    0.0,    6.6,   0.00,   0.00, 1012.0,   81.2, -999.0
01-06-2022, 00:17:40,    267,    0.0,    6.6,   0.00,   0.00, 1012.0,   81.2, -999.0
01-06-2022, 00:17:50,    266,    0.0,    6.6,   0.00,   0.00, 1012.0,   81.2, -999.0
01-06-2022, 00:18:00,    266,    0.0,    6.6,   0.00,   0.00, 1012.0,   81.1, -999.0
01-06-2022, 00:18:10,    266,    0.0,    6.6,   0.00,   0.00, 1012.0,   81.1, -999.0
01-06-2022, 00:18:20,    266,    0.0,    6.6,   0.00,   0.00, 1012.0,   81.1, -999.0
01-06-2022, 00:18:30,    266,    0.0,    6.6,   0.00,   0.00, 1011.9,   81.2, -999.0
01-06-2022, 00:18:40,    266,    0.0,    6.5,   0.00,   0.00, 1012.0,   81.1, -999.0
01-06-2022, 00:18:50,    266,    0.0,    6.6,   0.00,   0.00, 1012.0,   81.2, -999.0
01-06-2022, 00:19:00,    266,    0.0,    6.5,   0.00,   0.00, 1012.0,   81.0, -999.0
01-06-2022, 00:19:10,    266,    0.0,    6.6,   0.00,   0.00, 1011.9,   81.0, -999.0
01-06-2022, 00:19:19,    266,    0.0,    6.6,   0.00,   0.00, 1012.0,   81.1, -999.0
01-06-2022, 00:19:30,    266,    0.0,    6.6,   0.00,   0.00, 1011.9,   81.2, -999.0
01-06-2022, 00:19:40,    266,    0.0,    6.6,   0.00,   0.00, 1012.0,   81.1, -999.0
01-06-2022, 00:19:49,    266,    0.0,    6.5,   0.00,   0.00, 1012.0,   81.2, -999.0
01-06-2022, 00:19:59,    266,    0.0,    6.5,   0.00,   0.00, 1012.0,   81.1, -999.0
01-06-2022, 00:20:10,    266,    0.0,    6.5,   0.00,   0.00, 1011.9,   81.1, -999.0
01-06-2022, 00:20:19,    266,    0.0,    6.6,   0.00,   0.00, 1012.0,   81.2, -999.0
01-06-2022, 00:20:29,    267,    0.0,    6.5,   0.00,   0.00, 1012.0,   81.1, -999.0
01-06-2022, 00:20:39,    266,    0.0,    6.5,   0.00,   0.00, 1011.9,   81.0, -999.0
01-06-2022, 00:20:49,    266,    0.0,    6.5,   0.00,   0.00, 1012.0,   81.1, -999.0
01-06-2022, 00:20:59,    266,    0.0,    6.5,   0.00,   0.00, 1012.0,   81.2, -999.0
01-06-2022, 00:21:09,    266,    0.0,    6.5,   0.00,   0.00, 1012.0,   81.3, -999.0
01-06-2022, 00:21:19,    266,    0.0,    6.6,   0.00,   0.00, 1011.9,   81.3, -999.0
01-06-2022, 00:21:29,    266,    0.0,    6.6,   0.00,   0.00, 1011.9,   81.2, -999.0
01-06-2022, 00:21:39,    266,    0.0,    6.5,   0.00,   0.00, 1012.0,   81.2, -999.0
01-06-2022, 00:21:49,    267,    0.0,    6.5,   0.00,   0.00, 1011.9,   81.2, -999.0
01-06-2022, 00:21:59,    267,    0.0,    6.5,   0.00,   0.00, 1011.9,   81.1, -999.0
01-06-2022, 00:22:09,    266,    0.0,    6.5,   0.00,   0.00, 1011.9,   81.2, -999.0
01-06-2022, 00:22:19,    266,    0.0,    6.5,   0.00,   0.00, 1011.9,   81.1, -999.0
01-06-2022, 00:22:28,    266,    0.0,    6.5,   0.00,   0.00, 1011.9,   81.2, -999.0
01-06-2022, 00:22:39,    266,    0.0,    6.5,   0.00,   0.00, 1012.0,   81.2, -999.0
01-06-2022, 00:22:49,    266,    0.0,    6.5,   0.00,   0.00, 1011.9,   81.2, -999.0
01-06-2022, 00:22:58,    266,    0.0,    6.5,   0.00,   0.00, 1011.9,   81.2, -999.0
01-06-2022, 00:23:08,    266,    0.0,    6.5,   0.00,   0.00, 1011.9,   81.2, -999.0
01-06-2022, 00:23:19,    266,    0.0,    6.5,   0.00,   0.00, 1011.9,   81.2, -999.0
01-06-2022, 00:23:28,    266,    0.0,    6.4,   0.00,   0.00, 1011.9,   81.2, -999.0
01-06-2022, 00:23:38,    266,    0.0,    6.5,   0.00,   0.00, 1011.9,   81.2, -999.0
01-06-2022, 00:23:49,    266,    0.0,    6.5,   0.00,   0.00, 1012.0,   81.3, -999.0
01-06-2022, 00:23:58,    266,    0.0,    6.5,   0.00,   0.00, 1011.9,   81.2, -999.0
01-06-2022, 00:24:08,    266,    0.0,    6.5,   0.00,   0.00, 1011.9,   81.2, -999.0
01-06-2022, 00:24:18,    266,    0.0,    6.4,   0.00,   0.00, 1011.9,   81.3, -999.0
01-06-2022, 00:24:28,    266,    0.0,    6.5,   0.00,   0.00, 1011.9,   81.2, -999.0
01-06-2022, 00:24:38,    266,    0.0,    6.5,   0.00,   0.00, 1011.9,   81.4, -999.0
01-06-2022, 00:24:48,    266,    0.0,    6.5,   0.00,   0.00, 1011.9,   81.3, -999.0
01-06-2022, 00:24:58,    266,    0.0,    6.5,   0.00,   0.00, 1011.9,   81.4, -999.0
01-06-2022, 00:25:08,    266,    0.0,    6.5,   0.00,   0.00, 1011.9,   81.4, -999.0
01-06-2022, 00:25:18,    266,    0.0,    6.4,   0.00,   0.00, 1011.9,   81.4, -999.0
01-06-2022, 00:25:28,    266,    0.0,    6.5,   0.00,   0.00, 1011.9,   81.4, -999.0
01-06-2022, 00:25:38,    266,    0.0,    6.5,   0.00,   0.00, 1011.9,   81.5, -999.0
01-06-2022, 00:25:48,    266,    0.0,    6.5,   0.00,   0.00, 1011.9,   81.5, -999.0
01-06-2022, 00:25:58,    266,    0.0,    6.5,   0.00,   0.00, 1011.9,   81.6, -999.0
01-06-2022, 00:26:07,    266,    0.0,    6.5,   0.00,   0.00, 1011.9,   81.5, -999.0
01-06-2022, 00:26:18,    266,    0.0,    6.5,   0.00,   0.00, 1011.9,   81.6, -999.0
01-06-2022, 00:26:28,    266,    0.0,    6.5,   0.00,   0.00, 1011.9,   81.5, -999.0
01-06-2022, 00:26:37,    266,    0.0,    6.5,   0.00,   0.00, 1011.9,   81.5, -999.0
01-06-2022, 00:26:47,    266,    0.0,    6.5,   0.00,   0.00, 1011.9,   81.5, -999.0
01-06-2022, 00:26:58,    266,    0.0,    6.5,   0.00,   0.00, 1011.9,   81.6, -999.0
01-06-2022, 00:27:07,    266,    0.0,    6.4,   0.00,   0.00, 1011.9,   81.5, -999.0
01-06-2022, 00:27:17,    266,    0.0,    6.5,   0.00,   0.00, 1011.9,   81.5, -999.0
01-06-2022, 00:27:27,    266,    0.0,    6.4,   0.00,   0.00, 1011.9,   81.5, -999.0
01-06-2022, 00:27:37,    266,    0.0,    6.4,   0.00,   0.00, 1011.9,   81.5, -999.0
01-06-2022, 00:27:47,    266,    0.0,    6.4,   0.00,   0.00, 1011.9,   81.5, -999.0
01-06-2022, 00:27:57,    266,    0.0,    6.4,   0.00,   0.00, 1011.9,   81.5, -999.0
01-06-2022, 00:28:07,    266,    0.0,    6.4,   0.00,   0.00, 1011.9,   81.5, -999.0
01-06-2022, 00:28:17,    266,    0.0,    6.4,   0.00,   0.00, 1011.9,   81.5, -999.0
01-06-2022, 00:28:27,    266,    0.0,    6.5,   0.00,   0.00, 1011.9,   81.5, -999.0
01-06-2022, 00:28:37,    266,    0.0,    6.3,   0.00,   0.00, 1011.9,   81.5, -999.0
01-06-2022, 00:28:47,    266,    0.0,    6.5,   0.00,   0.00, 1011.9,   81.6, -999.0
01-06-2022, 00:28:57,    266,    0.0,    6.5,   0.00,   0.00, 1011.9,   81.5, -999.0
01-06-2022, 00:29:07,    266,    0.0,    6.4,   0.00,   0.00, 1011.9,   81.6, -999.0
01-06-2022, 00:29:16,    266,    0.0,    6.3,   0.00,   0.00, 1011.8,   81.7, -999.0
01-06-2022, 00:29:27,    266,    0.0,    6.3,   0.00,   0.00, 1011.9,   81.8, -999.0
01-06-2022, 00:29:37,    266,    0.0,    6.5,   0.00,   0.00, 1011.8,   81.9, -999.0
01-06-2022, 00:29:46,    266,    0.0,    6.6,   0.00,   0.00, 1011.9,   81.9, -999.0
01-06-2022, 00:29:56,    266,    0.0,    6.5,   0.00,   0.00, 1011.9,   81.8, -999.0
01-06-2022, 00:30:07,    266,    0.0,    6.4,   0.00,   0.00, 1011.9,   81.8, -999.0
01-06-2022, 00:30:16,    266,    0.0,    6.5,   0.00,   0.00, 1011.9,   81.7, -999.0
01-06-2022, 00:30:26,    266,    0.0,    6.5,   0.00,   0.00, 1011.8,   81.8, -999.0
01-06-2022, 00:30:36,    266,    0.0,    6.5,   0.00,   0.00, 1011.9,   81.7, -999.0
01-06-2022, 00:30:46,    266,    0.0,    6.4,   0.00,   0.00, 1011.8,   81.8, -999.0
01-06-2022, 00:30:56,    266,    0.0,    6.5,   0.00,   0.00, 1011.8,   81.8, -999.0
01-06-2022, 00:31:06,    266,    0.0,    6.5,   0.00,   0.00, 1011.8,   81.9, -999.0
01-06-2022, 00:31:16,    266,    0.0,    6.5,   0.00,   0.00, 1011.8,   81.9, -999.0
01-06-2022, 00:31:26,    266,    0.0,    6.5,   0.00,   0.00, 1011.9,   81.9, -999.0
01-06-2022, 00:31:36,    266,    0.0,    6.5,   0.00,   0.00, 1011.8,   81.8, -999.0
01-06-2022, 00:31:46,    267,    0.0,    6.5,   0.00,   0.00, 1011.8,   81.8, -999.0
01-06-2022, 00:31:56,    266,    0.0,    6.5,   0.00,   0.00, 1011.9,   81.8, -999.0
01-06-2022, 00:32:06,    266,    0.0,    6.4,   0.00,   0.00, 1011.8,   81.8, -999.0
01-06-2022, 00:32:16,    266,    0.0,    6.4,   0.00,   0.00, 1011.9,   81.8, -999.0
01-06-2022, 00:32:25,    266,    0.0,    6.5,   0.00,   0.00, 1011.9,   81.9, -999.0
01-06-2022, 00:32:36,    266,    0.0,    6.5,   0.00,   0.00, 1011.8,   81.9, -999.0
01-06-2022, 00:32:46,    266,    0.0,    6.5,   0.00,   0.00, 1011.8,   82.0, -999.0
01-06-2022, 00:32:55,    266,    0.0,    6.5,   0.00,   0.00, 1011.9,   82.0, -999.0
01-06-2022, 00:33:05,    266,    0.0,    6.6,   0.00,   0.00, 1011.8,   82.0, -999.0
01-06-2022, 00:33:16,    266,    0.0,    6.6,   0.00,   0.00, 1011.8,   82.1, -999.0
01-06-2022, 00:33:25,    266,    0.0,    6.5,   0.00,   0.00, 1011.8,   82.1, -999.0
01-06-2022, 00:33:35,    266,    0.0,    6.5,   0.00,   0.00, 1011.8,   82.0, -999.0
01-06-2022, 00:33:46,    266,    0.0,    6.5,   0.00,   0.00, 1011.8,   82.0, -999.0
01-06-2022, 00:33:55,    266,    0.0,    6.5,   0.00,   0.00, 1011.8,   82.0, -999.0
01-06-2022, 00:34:05,    266,    0.0,    6.5,   0.00,   0.00, 1011.8,   81.9, -999.0
01-06-2022, 00:34:15,    267,    0.0,    6.5,   0.00,   0.00, 1011.8,   81.9, -999.0
01-06-2022, 00:34:25,    266,    0.0,    6.4,   0.00,   0.00, 1011.8,   81.9, -999.0
01-06-2022, 00:34:35,    266,    0.0,    6.6,   0.00,   0.00, 1011.8,   81.8, -999.0
01-06-2022, 00:34:45,    266,    0.0,    6.5,   0.00,   0.00, 1011.8,   81.8, -999.0
01-06-2022, 00:34:55,    266,    0.0,    6.5,   0.00,   0.00, 1011.8,   81.9, -999.0
01-06-2022, 00:35:05,    266,    0.0,    6.3,   0.00,   0.00, 1011.8,   81.9, -999.0
01-06-2022, 00:35:15,    267,    0.0,    6.4,   0.00,   0.00, 1011.8,   81.9, -999.0
01-06-2022, 00:35:25,    266,    0.0,    6.5,   0.00,   0.00, 1011.8,   81.8, -999.0
01-06-2022, 00:35:34,    266,    0.0,    6.5,   0.00,   0.00, 1011.9,   81.9, -999.0
01-06-2022, 00:35:45,    266,    0.0,    6.5,   0.00,   0.00, 1011.9,   81.9, -999.0
01-06-2022, 00:35:55,    266,    0.0,    6.4,   0.00,   0.00, 1011.8,   81.9, -999.0
01-06-2022, 00:36:04,    266,    0.0,    6.5,   0.00,   0.00, 1011.8,   82.0, -999.0
01-06-2022, 00:36:15,    266,    0.0,    6.5,   0.00,   0.00, 1011.9,   82.0, -999.0
01-06-2022, 00:36:25,    266,    0.0,    6.5,   0.00,   0.00, 1011.8,   82.1, -999.0
01-06-2022, 00:36:34,    266,    0.0,    6.5,   0.00,   0.00, 1011.9,   81.9, -999.0
01-06-2022, 00:36:44,    266,    0.0,    6.5,   0.00,   0.00, 1011.9,   81.9, -999.0
01-06-2022, 00:36:55,    266,    0.0,    6.5,   0.00,   0.00, 1011.9,   81.9, -999.0
01-06-2022, 00:37:04,    266,    0.0,    6.5,   0.00,   0.00, 1011.8,   81.9, -999.0
01-06-2022, 00:37:14,    266,    0.0,    6.5,   0.00,   0.00, 1011.8,   81.8, -999.0
01-06-2022, 00:37:24,    266,    0.0,    6.5,   0.00,   0.00, 1011.9,   81.9, -999.0
01-06-2022, 00:37:34,    266,    0.0,    6.5,   0.00,   0.00, 1011.9,   81.9, -999.0
01-06-2022, 00:37:44,    266,    0.0,    6.5,   0.00,   0.00, 1011.9,   81.9, -999.0
01-06-2022, 00:37:54,    266,    0.0,    6.5,   0.00,   0.00, 1011.9,   81.8, -999.0
01-06-2022, 00:38:04,    266,    0.0,    6.5,   0.00,   0.00, 1011.9,   82.0, -999.0
01-06-2022, 00:38:14,    266,    0.0,    6.4,   0.00,   0.00, 1011.9,   81.9, -999.0
01-06-2022, 00:38:24,    266,    0.0,    6.5,   0.00,   0.00, 1011.8,   82.0, -999.0
01-06-2022, 00:38:34,    266,    0.0,    6.5,   0.00,   0.00, 1011.9,   81.9, -999.0
01-06-2022, 00:38:44,    266,    0.0,    6.5,   0.00,   0.00, 1011.8,   82.0, -999.0
01-06-2022, 00:38:54,    266,    0.0,    6.5,   0.00,   0.00, 1011.9,   81.9, -999.0
01-06-2022, 00:39:04,    266,    0.0,    6.4,   0.00,   0.00, 1011.8,   81.9, -999.0
01-06-2022, 00:39:13,    266,    0.0,    6.5,   0.00,   0.00, 1011.8,   82.0, -999.0
01-06-2022, 00:39:24,    266,    0.0,    6.4,   0.00,   0.00, 1011.9,   82.0, -999.0
01-06-2022, 00:39:34,    266,    0.0,    6.5,   0.00,   0.00, 1011.8,   82.0, -999.0
01-06-2022, 00:39:43,    266,    0.0,    6.4,   0.00,   0.00, 1011.9,   82.0, -999.0
01-06-2022, 00:39:53,    267,    0.0,    6.4,   0.00,   0.00, 1011.8,   82.0, -999.0
01-06-2022, 00:40:04,    266,    0.0,    6.4,   0.00,   0.00, 1011.9,   82.1, -999.0
01-06-2022, 00:40:13,    266,    0.0,    6.5,   0.00,   0.00, 1011.8,   82.2, -999.0
01-06-2022, 00:40:23,    266,    0.0,    6.5,   0.00,   0.00, 1011.9,   82.1, -999.0
01-06-2022, 00:40:33,    266,    0.0,    6.5,   0.00,   0.00, 1011.8,   82.1, -999.0
01-06-2022, 00:40:43,    266,    0.0,    6.5,   0.00,   0.00, 1011.8,   82.2, -999.0
01-06-2022, 00:40:53,    266,    0.0,    6.4,   0.00,   0.00, 1011.9,   82.1, -999.0
01-06-2022, 00:41:03,    266,    0.0,    6.4,   0.00,   0.00, 1011.8,   82.0, -999.0
01-06-2022, 00:41:13,    266,    0.0,    6.5,   0.00,   0.00, 1011.8,   82.1, -999.0
01-06-2022, 00:41:23,    266,    0.0,    6.5,   0.00,   0.00, 1011.8,   82.1, -999.0
01-06-2022, 00:41:33,    266,    0.0,    6.4,   0.00,   0.00, 1011.9,   82.2, -999.0
01-06-2022, 00:41:43,    266,    0.0,    6.5,   0.00,   0.00, 1011.9,   82.1, -999.0
01-06-2022, 00:41:53,    266,    0.0,    6.5,   0.00,   0.00, 1011.9,   82.1, -999.0
01-06-2022, 00:42:03,    266,    0.0,    6.5,   0.00,   0.00, 1011.9,   82.1, -999.0
01-06-2022, 00:42:13,    266,    0.0,    6.4,   0.00,   0.00, 1011.9,   82.0, -999.0
01-06-2022, 00:42:22,    266,    0.0,    6.4,   0.00,   0.00, 1011.9,   82.0, -999.0
01-06-2022, 00:42:33,    266,    0.0,    6.5,   0.00,   0.00, 1011.9,   82.2, -999.0
01-06-2022, 00:42:43,    266,    0.0,    6.5,   0.00,   0.00, 1011.9,   82.1, -999.0
01-06-2022, 00:42:52,    266,    0.0,    6.4,   0.00,   0.00, 1011.9,   82.3, -999.0
01-06-2022, 00:43:02,    266,    0.0,    6.5,   0.00,   0.00, 1011.9,   82.2, -999.0
01-06-2022, 00:43:13,    266,    0.0,    6.5,   0.00,   0.00, 1011.9,   82.3, -999.0
01-06-2022, 00:43:22,    266,    0.0,    6.5,   0.00,   0.00, 1011.9,   82.2, -999.0
01-06-2022, 00:43:32,    265,    0.0,    6.4,   0.00,   0.00, 1011.9,   82.3, -999.0
01-06-2022, 00:43:43,    266,    0.0,    6.4,   0.00,   0.00, 1011.8,   82.3, -999.0
01-06-2022, 00:43:52,    262,    0.0,    6.5,   0.00,   0.00, 1011.9,   82.3, -999.0
01-06-2022, 00:44:02,    262,    0.0,    6.5,   0.00,   0.00, 1011.9,   82.3, -999.0
01-06-2022, 00:44:12,    262,    0.0,    6.5,   0.00,   0.00, 1011.9,   82.3, -999.0
01-06-2022, 00:44:22,    262,    0.0,    6.4,   0.00,   0.00, 1011.9,   82.2, -999.0
01-06-2022, 00:44:32,    262,    0.0,    6.4,   0.00,   0.00, 1011.9,   82.1, -999.0
01-06-2022, 00:44:42,    262,    0.0,    6.3,   0.00,   0.00, 1011.9,   82.2, -999.0
01-06-2022, 00:44:52,    262,    0.0,    6.4,   0.00,   0.00, 1011.9,   82.2, -999.0
01-06-2022, 00:45:02,    262,    0.0,    6.4,   0.00,   0.00, 1011.9,   82.3, -999.0
01-06-2022, 00:45:12,    262,    0.0,    6.4,   0.00,   0.00, 1011.8,   82.3, -999.0
01-06-2022, 00:45:22,    262,    0.0,    6.5,   0.00,   0.00, 1011.9,   82.2, -999.0
01-06-2022, 00:45:32,    262,    0.0,    6.4,   0.00,   0.00, 1011.9,   82.2, -999.0
01-06-2022, 00:45:42,    262,    0.0,    6.4,   0.00,   0.00, 1011.9,   82.2, -999.0
01-06-2022, 00:45:52,    262,    0.0,    6.5,   0.00,   0.00, 1011.9,   82.1, -999.0
01-06-2022, 00:46:01,    262,    0.0,    6.5,   0.00,   0.00, 1011.9,   82.2, -999.0
01-06-2022, 00:46:12,    262,    0.0,    6.5,   0.00,   0.00, 1011.9,   82.3, -999.0
01-06-2022, 00:46:22,    262,    0.0,    6.5,   0.00,   0.00, 1011.9,   82.2, -999.0
01-06-2022, 00:46:31,    262,    0.0,    6.5,   0.00,   0.00, 1011.9,   82.3, -999.0
01-06-2022, 00:46:41,    262,    0.0,    6.6,   0.00,   0.00, 1011.9,   82.4, -999.0